Time,TemperatureF,DewpointF,PressureIn,WindDirection,WindDirectionDegrees,WindSpeedMPH,WindSpeedGustMPH,Humidity,HourlyPrecipIn,Conditions,Clouds,dailyrainin,SoftwareType,DateUTC
2013-03-19 00:04:00,52.7,47.0,28.79,SSW,203,0.0,0.0,81,0.00,,SKC,0.00,VWS V14.00,2013-03-19 04:04:00,
2013-03-19 00:09:00,52.9,47.2,28.79,SSW,203,0.0,0.0,81,0.00,,SKC,0.00,VWS V14.00,2013-03-19 04:09:00,
2013-03-19 00:19:00,52.9,47.2,28.79,SW,229,0.0,0.0,81,0.00,,SKC,0.00,VWS V14.00,2013-03-19 04:19:00,
2013-03-19 00:24:00,52.9,47.2,28.79,SW,232,0.0,3.6,81,0.00,,SKC,0.00,VWS V14.00,2013-03-19 04:24:00,
2013-03-19 00:29:00,53.1,47.7,28.79,WSW,239,0.0,3.6,82,0.04,,SKC,0.04,VWS V14.00,2013-03-19 04:29:00,
2013-03-19 00:34:00,53.1,47.7,28.79,WSW,237,3.8,4.9,82,0.04,,SKC,0.04,VWS V14.00,2013-03-19 04:34:00,
2013-03-19 00:39:00,53.1,47.7,28.79,WNW,285,0.0,4.9,82,0.04,,SKC,0.04,VWS V14.00,2013-03-19 04:39:00,
2013-03-19 00:44:00,53.1,47.7,28.79,NW,310,0.0,4.0,82,0.04,,SKC,0.04,VWS V14.00,2013-03-19 04:44:00,
2013-03-19 00:49:00,53.1,47.7,28.82,SW,220,0.0,4.0,82,0.08,,SKC,0.08,VWS V14.00,2013-03-19 04:49:00,
2013-03-19 00:54:00,53.1,47.7,28.82,SW,224,0.0,0.0,82,0.12,,SKC,0.12,VWS V14.00,2013-03-19 04:54:00,
2013-03-19 00:59:00,53.1,47.7,28.82,WSW,251,0.0,0.0,82,0.12,,SKC,0.12,VWS V14.00,2013-03-19 04:59:00,
2013-03-19 01:04:00,53.1,47.7,28.82,SSW,203,0.0,0.0,82,0.12,,SKC,0.12,VWS V14.00,2013-03-19 05:04:00,
2013-03-19 01:09:00,53.1,47.7,28.82,SSW,203,0.0,0.0,82,0.12,,SKC,0.12,VWS V14.00,2013-03-19 05:09:00,
2013-03-19 01:14:00,53.1,47.7,28.82,SSW,201,0.0,0.0,82,0.12,,SKC,0.12,VWS V14.00,2013-03-19 05:14:00,
2013-03-19 01:19:00,53.1,47.7,28.82,SSW,207,0.0,0.0,82,0.12,,SKC,0.12,VWS V14.00,2013-03-19 05:19:00,
2013-03-19 01:24:00,53.1,48.0,28.82,NNW,335,0.0,0.0,83,0.12,,SKC,0.12,VWS V14.00,2013-03-19 05:24:00,
2013-03-19 01:29:00,53.1,47.7,28.82,SSW,202,6.4,6.4,82,0.12,,SKC,0.12,VWS V14.00,2013-03-19 05:29:00,
2013-03-19 01:34:00,53.1,48.0,28.82,NNW,332,4.8,5.4,83,0.08,,SKC,0.12,VWS V14.00,2013-03-19 05:34:00,
2013-03-19 01:39:00,53.1,48.0,28.82,NNW,327,0.0,5.4,83,0.08,,SKC,0.12,VWS V14.00,2013-03-19 05:39:00,
2013-03-19 01:44:00,52.9,47.9,28.82,SSW,211,0.0,4.0,83,0.08,,SKC,0.12,VWS V14.00,2013-03-19 05:44:00,
2013-03-19 01:49:00,52.9,47.9,28.82,NW,326,0.0,4.0,83,0.08,,SKC,0.12,VWS V14.00,2013-03-19 05:49:00,
2013-03-19 01:54:00,52.7,47.7,28.82,NW,304,0.0,4.5,83,0.04,,SKC,0.12,VWS V14.00,2013-03-19 05:54:00,
2013-03-19 01:59:00,52.7,47.7,28.82,NW,312,0.0,4.5,83,0.04,,SKC,0.12,VWS V14.00,2013-03-19 05:59:00,
2013-03-19 02:04:00,52.5,47.5,28.82,NW,317,0.0,0.0,83,0.00,,SKC,0.12,VWS V14.00,2013-03-19 06:04:00,
2013-03-19 02:09:00,52.5,47.5,28.82,NW,305,0.0,0.0,83,0.00,,SKC,0.12,VWS V14.00,2013-03-19 06:09:00,
2013-03-19 02:14:00,52.5,47.5,28.82,SW,225,0.0,4.0,83,0.00,,SKC,0.12,VWS V14.00,2013-03-19 06:14:00,
2013-03-19 02:19:00,52.3,47.3,28.82,NW,316,2.7,4.0,83,0.00,,SKC,0.12,VWS V14.00,2013-03-19 06:19:00,
2013-03-19 02:24:00,52.0,47.0,28.82,NW,313,2.7,5.4,83,0.00,,SKC,0.12,VWS V14.00,2013-03-19 06:24:00,
2013-03-19 02:29:00,52.0,47.0,28.82,SW,236,4.8,5.4,83,0.00,,SKC,0.12,VWS V14.00,2013-03-19 06:29:00,
2013-03-19 02:34:00,51.6,46.6,28.85,NNW,329,7.0,7.0,83,0.00,,SKC,0.12,VWS V14.00,2013-03-19 06:34:00,
2013-03-19 02:39:00,51.4,46.5,28.85,NW,318,0.0,5.8,83,0.00,,SKC,0.12,VWS V14.00,2013-03-19 06:39:00,
2013-03-19 02:44:00,51.1,46.1,28.85,NNW,332,3.2,8.1,83,0.00,,SKC,0.12,VWS V14.00,2013-03-19 06:44:00,
2013-03-19 02:49:00,50.9,45.9,28.85,WSW,250,3.2,8.1,83,0.00,,SKC,0.12,VWS V14.00,2013-03-19 06:49:00,
2013-03-19 02:54:00,50.5,45.6,28.85,NNW,340,4.8,7.6,83,0.00,,SKC,0.12,VWS V14.00,2013-03-19 06:54:00,
2013-03-19 02:59:00,50.2,44.9,28.85,NW,324,6.4,8.3,82,0.00,,SKC,0.12,VWS V14.00,2013-03-19 06:59:00,
2013-03-19 03:04:00,49.8,44.5,28.85,NW,313,3.8,7.6,82,0.00,,SKC,0.12,VWS V14.00,2013-03-19 07:04:00,
2013-03-19 03:09:00,49.6,44.4,28.85,NW,316,7.5,7.6,82,0.00,,SKC,0.12,VWS V14.00,2013-03-19 07:09:00,
2013-03-19 03:14:00,49.3,43.7,28.85,NW,307,0.0,6.3,81,0.00,,SKC,0.12,VWS V14.00,2013-03-19 07:14:00,
2013-03-19 03:20:00,49.1,43.5,28.88,NW,319,6.4,7.6,81,0.00,,SKC,0.12,VWS V14.00,2013-03-19 07:20:00,
2013-03-19 03:25:00,48.9,43.3,28.88,NW,326,3.2,5.4,81,0.00,,SKC,0.12,VWS V14.00,2013-03-19 07:25:00,
2013-03-19 03:30:00,48.7,43.2,28.88,NW,314,0.0,5.4,81,0.00,,SKC,0.12,VWS V14.00,2013-03-19 07:30:00,
2013-03-19 03:35:00,48.7,42.9,28.88,WSW,241,2.7,4.9,80,0.00,,SKC,0.12,VWS V14.00,2013-03-19 07:35:00,
2013-03-19 03:40:00,48.4,42.5,28.88,NW,322,0.0,0.0,80,0.00,,SKC,0.12,VWS V14.00,2013-03-19 07:40:00,
2013-03-19 03:45:00,48.2,42.3,28.88,NW,313,3.8,3.8,80,0.00,,SKC,0.12,VWS V14.00,2013-03-19 07:45:00,
2013-03-19 03:50:00,48.0,42.2,28.91,NW,325,2.7,2.7,80,0.00,,SKC,0.12,VWS V14.00,2013-03-19 07:50:00,
2013-03-19 03:55:00,47.8,42.0,28.91,SW,235,0.0,2.2,80,0.00,,SKC,0.12,VWS V14.00,2013-03-19 07:55:00,
2013-03-19 04:00:00,47.7,41.8,28.91,NW,315,0.0,0.0,80,0.00,,SKC,0.12,VWS V14.00,2013-03-19 08:00:00,
2013-03-19 04:05:00,47.3,41.5,28.91,NW,320,3.2,5.4,80,0.00,,SKC,0.12,VWS V14.00,2013-03-19 08:05:00,
2013-03-19 04:10:00,47.1,41.0,28.91,SW,222,3.2,3.2,79,0.00,,SKC,0.12,VWS V14.00,2013-03-19 08:10:00,
2013-03-19 04:15:00,46.9,40.8,28.91,West,267,3.2,5.8,79,0.00,,SKC,0.12,VWS V14.00,2013-03-19 08:15:00,
2013-03-19 04:20:00,46.8,40.6,28.91,SW,222,0.0,0.0,79,0.00,,SKC,0.12,VWS V14.00,2013-03-19 08:20:00,
2013-03-19 04:25:00,46.6,40.4,28.91,WNW,303,3.8,3.8,79,0.00,,SKC,0.12,VWS V14.00,2013-03-19 08:25:00,
2013-03-19 04:30:00,46.4,40.2,28.91,South,182,0.0,0.0,79,0.00,,SKC,0.12,VWS V14.00,2013-03-19 08:30:00,
2013-03-19 04:35:00,46.4,40.2,28.94,WSW,241,0.0,0.0,79,0.00,,SKC,0.12,VWS V14.00,2013-03-19 08:35:00,
2013-03-19 04:40:00,46.4,40.2,28.94,WSW,241,0.0,0.0,79,0.00,,SKC,0.12,VWS V14.00,2013-03-19 08:40:00,
2013-03-19 04:45:00,46.2,40.1,28.94,NW,319,0.0,0.0,79,0.00,,SKC,0.12,VWS V14.00,2013-03-19 08:45:00,
2013-03-19 04:50:00,46.0,39.9,28.94,NW,308,0.0,0.0,79,0.00,,SKC,0.12,VWS V14.00,2013-03-19 08:50:00,
2013-03-19 04:55:00,45.9,39.7,28.94,NW,309,0.0,0.0,79,0.00,,SKC,0.12,VWS V14.00,2013-03-19 08:55:00,
2013-03-19 05:00:00,45.5,39.4,28.94,NW,309,0.0,0.0,79,0.00,,SKC,0.12,VWS V14.00,2013-03-19 09:00:00,
2013-03-19 05:05:00,45.3,39.2,28.94,NW,313,0.0,0.0,79,0.00,,SKC,0.12,VWS V14.00,2013-03-19 09:05:00,
2013-03-19 05:10:00,45.0,38.8,28.94,West,281,0.0,0.0,79,0.00,,SKC,0.12,VWS V14.00,2013-03-19 09:10:00,
2013-03-19 05:15:00,44.8,38.7,28.94,NW,304,0.0,0.0,79,0.00,,SKC,0.12,VWS V14.00,2013-03-19 09:15:00,
2013-03-19 05:20:00,44.6,38.5,28.97,NW,304,0.0,0.0,79,0.00,,SKC,0.12,VWS V14.00,2013-03-19 09:20:00,
2013-03-19 05:25:00,44.4,38.3,28.97,NW,304,0.0,0.0,79,0.00,,SKC,0.12,VWS V14.00,2013-03-19 09:25:00,
2013-03-19 05:30:00,44.2,38.2,28.97,NW,304,0.0,0.0,79,0.00,,SKC,0.12,VWS V14.00,2013-03-19 09:30:00,
2013-03-19 05:35:00,44.1,38.0,28.97,NW,304,0.0,0.0,79,0.00,,SKC,0.12,VWS V14.00,2013-03-19 09:35:00,
2013-03-19 05:40:00,43.5,37.1,28.97,NW,304,0.0,0.0,78,0.00,,SKC,0.12,VWS V14.00,2013-03-19 09:40:00,
2013-03-19 05:45:00,43.0,36.6,28.97,NW,304,0.0,0.0,78,0.00,,SKC,0.12,VWS V14.00,2013-03-19 09:45:00,
2013-03-19 05:50:00,42.8,36.8,29.00,NW,304,0.0,0.0,79,0.00,,SKC,0.12,VWS V14.00,2013-03-19 09:50:00,
2013-03-19 05:55:00,42.4,36.4,29.00,ENE,62,0.0,0.0,79,0.00,,SKC,0.12,VWS V14.00,2013-03-19 09:55:00,
2013-03-19 06:00:00,42.3,36.2,29.00,NNW,346,0.0,0.0,79,0.00,,SKC,0.12,VWS V14.00,2013-03-19 10:00:00,
2013-03-19 06:05:00,42.3,36.2,29.00,SW,217,0.0,0.0,79,0.00,,SKC,0.12,VWS V14.00,2013-03-19 10:05:00,
2013-03-19 06:10:00,42.1,35.7,29.00,SW,217,0.0,0.0,78,0.00,,SKC,0.12,VWS V14.00,2013-03-19 10:10:00,
2013-03-19 06:15:00,41.9,35.5,29.00,SW,217,0.0,0.0,78,0.00,,SKC,0.12,VWS V14.00,2013-03-19 10:15:00,
2013-03-19 06:20:00,42.1,36.0,29.00,SW,218,0.0,0.0,79,0.00,,SKC,0.12,VWS V14.00,2013-03-19 10:20:00,
2013-03-19 06:25:00,41.5,35.2,29.00,SW,217,0.0,0.0,78,0.00,,SKC,0.12,VWS V14.00,2013-03-19 10:25:00,
2013-03-19 06:30:00,41.2,34.8,29.00,SW,217,0.0,0.0,78,0.00,,SKC,0.12,VWS V14.00,2013-03-19 10:30:00,
2013-03-19 06:35:00,41.0,34.7,29.00,SW,218,0.0,0.0,78,0.00,,SKC,0.12,VWS V14.00,2013-03-19 10:35:00,
2013-03-19 06:40:00,41.0,34.7,29.00,SW,217,0.0,0.0,78,0.00,,SKC,0.12,VWS V14.00,2013-03-19 10:40:00,
2013-03-19 06:45:00,40.8,34.5,29.00,SW,217,0.0,0.0,78,0.00,,SKC,0.12,VWS V14.00,2013-03-19 10:45:00,
2013-03-19 06:50:00,40.6,34.3,29.00,SW,217,0.0,0.0,78,0.00,,SKC,0.12,VWS V14.00,2013-03-19 10:50:00,
2013-03-19 06:55:00,40.5,34.2,29.00,SW,217,0.0,0.0,78,0.00,,SKC,0.12,VWS V14.00,2013-03-19 10:55:00,
2013-03-19 07:00:00,40.5,34.2,29.00,SW,217,0.0,0.0,78,0.00,,SKC,0.12,VWS V14.00,2013-03-19 11:00:00,
2013-03-19 07:05:00,40.3,34.0,29.00,SW,218,0.0,0.0,78,0.00,,SKC,0.12,VWS V14.00,2013-03-19 11:05:00,
2013-03-19 07:10:00,39.9,33.6,29.00,SW,218,0.0,0.0,78,0.00,,SKC,0.12,VWS V14.00,2013-03-19 11:10:00,
2013-03-19 07:15:00,39.7,33.5,29.00,SW,217,0.0,0.0,78,0.00,,SKC,0.12,VWS V14.00,2013-03-19 11:15:00,
2013-03-19 07:20:00,39.7,33.5,29.00,SW,217,0.0,0.0,78,0.00,,SKC,0.12,VWS V14.00,2013-03-19 11:20:00,
2013-03-19 07:25:00,39.6,33.3,29.00,SW,217,0.0,0.0,78,0.00,,SKC,0.12,VWS V14.00,2013-03-19 11:25:00,
2013-03-19 07:30:00,39.6,33.3,29.00,SW,217,0.0,0.0,78,0.00,,SKC,0.12,VWS V14.00,2013-03-19 11:30:00,
2013-03-19 07:35:00,39.4,33.1,29.00,SW,217,0.0,0.0,78,0.00,,SKC,0.12,VWS V14.00,2013-03-19 11:35:00,
2013-03-19 07:40:00,39.2,32.9,29.00,SW,217,0.0,0.0,78,0.00,,SKC,0.12,VWS V14.00,2013-03-19 11:40:00,
2013-03-19 07:45:00,38.8,32.6,29.00,SW,217,0.0,0.0,78,0.00,,SKC,0.12,VWS V14.00,2013-03-19 11:45:00,
2013-03-19 07:50:00,38.8,32.9,29.00,SW,217,0.0,0.0,79,0.00,,SKC,0.12,VWS V14.00,2013-03-19 11:50:00,
2013-03-19 07:55:00,38.8,32.9,29.00,SW,218,0.0,0.0,79,0.00,,SKC,0.12,VWS V14.00,2013-03-19 11:55:00,
2013-03-19 08:00:00,38.8,32.9,29.00,SW,217,0.0,0.0,79,0.00,,SKC,0.12,VWS V14.00,2013-03-19 12:00:00,
2013-03-19 08:05:00,38.8,32.9,29.00,SW,218,0.0,0.0,79,0.00,,SKC,0.12,VWS V14.00,2013-03-19 12:05:00,
2013-03-19 08:10:00,38.7,32.7,29.00,SW,218,0.0,0.0,79,0.00,,SKC,0.12,VWS V14.00,2013-03-19 12:10:00,
2013-03-19 08:15:00,38.7,32.7,29.00,SW,217,0.0,0.0,79,0.00,,SKC,0.12,VWS V14.00,2013-03-19 12:15:00,
2013-03-19 08:20:00,38.7,32.7,29.00,SW,217,0.0,0.0,79,0.00,,SKC,0.12,VWS V14.00,2013-03-19 12:20:00,
2013-03-19 08:25:00,38.7,32.7,29.00,SW,217,0.0,0.0,79,0.00,,SKC,0.12,VWS V14.00,2013-03-19 12:25:00,
2013-03-19 08:30:00,38.7,33.0,29.00,SW,217,0.0,0.0,80,0.00,,SKC,0.12,VWS V14.00,2013-03-19 12:30:00,
2013-03-19 08:35:00,38.8,33.2,29.00,SW,217,0.0,0.0,80,0.00,,SKC,0.12,VWS V14.00,2013-03-19 12:35:00,
2013-03-19 08:40:00,38.8,33.2,29.00,SW,217,0.0,0.0,80,0.00,,SKC,0.12,VWS V14.00,2013-03-19 12:40:00,
2013-03-19 08:45:00,39.0,33.4,29.00,SW,217,0.0,0.0,80,0.00,,SKC,0.12,VWS V14.00,2013-03-19 12:45:00,
2013-03-19 08:50:00,39.2,33.6,29.00,SW,218,0.0,0.0,80,0.00,,SKC,0.12,VWS V14.00,2013-03-19 12:50:00,
2013-03-19 08:55:00,39.4,34.0,29.00,SW,217,0.0,0.0,81,0.00,,SKC,0.12,VWS V14.00,2013-03-19 12:55:00,
2013-03-19 09:00:00,39.6,34.2,29.00,SW,217,0.0,0.0,81,0.00,,SKC,0.12,VWS V14.00,2013-03-19 13:00:00,
2013-03-19 09:05:00,39.7,34.4,29.00,SW,218,0.0,0.0,81,0.00,,SKC,0.12,VWS V14.00,2013-03-19 13:05:00,
2013-03-19 09:10:00,39.9,34.6,29.00,SW,217,0.0,0.0,81,0.00,,SKC,0.12,VWS V14.00,2013-03-19 13:10:00,
2013-03-19 09:15:00,40.1,35.1,29.00,SW,217,0.0,0.0,82,0.00,,SKC,0.12,VWS V14.00,2013-03-19 13:15:00,
2013-03-19 09:20:00,40.3,35.2,29.00,SSW,206,0.0,0.0,82,0.00,,SKC,0.12,VWS V14.00,2013-03-19 13:20:00,
2013-03-19 09:25:00,40.5,35.4,29.00,SSW,192,0.0,0.0,82,0.00,,SKC,0.12,VWS V14.00,2013-03-19 13:25:00,
2013-03-19 09:30:00,40.5,35.4,29.00,South,177,0.0,0.0,82,0.00,,SKC,0.12,VWS V14.00,2013-03-19 13:30:00,
2013-03-19 09:35:00,40.8,36.1,29.00,South,172,0.0,0.0,83,0.00,,SKC,0.12,VWS V14.00,2013-03-19 13:35:00,
2013-03-19 09:40:00,41.0,36.2,29.00,SSW,194,0.0,0.0,83,0.00,,SKC,0.12,VWS V14.00,2013-03-19 13:40:00,
2013-03-19 09:45:00,41.4,36.6,29.00,SSW,193,0.0,0.0,83,0.00,,SKC,0.12,VWS V14.00,2013-03-19 13:45:00,
2013-03-19 09:50:00,41.5,36.8,29.00,South,187,0.0,0.0,83,0.00,,SKC,0.12,VWS V14.00,2013-03-19 13:50:00,
2013-03-19 09:56:00,41.9,37.1,29.00,SSW,197,0.0,0.0,83,0.00,,SKC,0.12,VWS V14.00,2013-03-19 13:56:00,
2013-03-19 10:01:00,42.3,37.8,29.00,SSW,197,0.0,0.0,84,0.00,,SKC,0.12,VWS V14.00,2013-03-19 14:01:00,
2013-03-19 10:06:00,42.8,38.0,29.00,SSW,210,0.0,0.0,83,0.00,,SKC,0.12,VWS V14.00,2013-03-19 14:06:00,
2013-03-19 10:11:00,43.0,38.2,29.00,SSW,198,0.0,0.0,83,0.00,,SKC,0.12,VWS V14.00,2013-03-19 14:11:00,
2013-03-19 10:16:00,43.0,37.9,29.00,SSW,211,0.0,0.0,82,0.00,,SKC,0.12,VWS V14.00,2013-03-19 14:16:00,
2013-03-19 10:21:00,42.8,37.4,29.00,SSW,206,3.8,4.0,81,0.00,,SKC,0.12,VWS V14.00,2013-03-19 14:21:00,
2013-03-19 10:26:00,42.8,37.4,29.00,SSW,206,0.0,4.0,81,0.00,,SKC,0.12,VWS V14.00,2013-03-19 14:26:00,
2013-03-19 10:31:00,43.3,37.9,29.00,SSW,206,0.0,0.0,81,0.00,,SKC,0.12,VWS V14.00,2013-03-19 14:31:00,
2013-03-19 10:36:00,43.5,38.1,29.03,SSW,198,3.2,6.3,81,0.00,,SKC,0.12,VWS V14.00,2013-03-19 14:36:00,
2013-03-19 10:41:00,43.5,37.8,29.03,SSW,198,0.0,0.0,80,0.00,,SKC,0.12,VWS V14.00,2013-03-19 14:41:00,
2013-03-19 10:46:00,43.7,38.0,29.03,SW,215,0.0,0.0,80,0.00,,SKC,0.12,VWS V14.00,2013-03-19 14:46:00,
2013-03-19 10:51:00,43.9,38.1,29.03,East,83,3.2,3.6,80,0.00,,SKC,0.12,VWS V14.00,2013-03-19 14:51:00,
2013-03-19 10:56:00,44.1,38.0,29.03,SSW,200,0.0,5.4,79,0.00,,SKC,0.12,VWS V14.00,2013-03-19 14:56:00,
2013-03-19 11:06:00,45.0,38.2,29.03,South,176,0.0,2.7,77,0.00,,SKC,0.12,VWS V14.00,2013-03-19 15:06:00,
2013-03-19 11:11:00,45.1,38.4,29.03,SW,219,0.0,2.2,77,0.00,,SKC,0.12,VWS V14.00,2013-03-19 15:11:00,
2013-03-19 11:20:00,45.9,38.7,29.03,SW,234,4.8,5.4,76,0.00,,SKC,0.12,VWS V14.00,2013-03-19 15:20:00,
2013-03-19 11:26:00,46.2,38.4,29.03,NNW,337,3.8,6.3,74,0.00,,SKC,0.12,VWS V14.00,2013-03-19 15:26:00,
2013-03-19 11:31:00,46.6,38.4,29.03,North,357,0.0,0.0,73,0.00,,SKC,0.12,VWS V14.00,2013-03-19 15:31:00,
2013-03-19 11:36:00,46.8,38.6,29.03,SW,230,0.0,4.0,73,0.00,,SKC,0.12,VWS V14.00,2013-03-19 15:36:00,
2013-03-19 11:41:00,46.9,38.0,29.03,North,349,0.0,3.6,71,0.00,,SKC,0.12,VWS V14.00,2013-03-19 15:41:00,
2013-03-19 11:46:00,47.5,38.2,29.03,SW,233,6.4,6.4,70,0.00,,SKC,0.12,VWS V14.00,2013-03-19 15:46:00,
2013-03-19 11:51:00,47.7,38.4,29.03,SW,226,0.0,0.0,70,0.00,,SKC,0.12,VWS V14.00,2013-03-19 15:51:00,
2013-03-19 11:56:00,48.2,38.2,29.03,NW,307,0.0,3.6,68,0.00,,SKC,0.12,VWS V14.00,2013-03-19 15:56:00,
2013-03-19 12:01:00,48.7,38.3,29.03,WNW,292,0.0,0.0,67,0.00,,SKC,0.12,VWS V14.00,2013-03-19 16:01:00,
2013-03-19 12:06:00,48.9,38.8,29.03,WNW,298,0.0,0.0,68,0.00,,SKC,0.12,VWS V14.00,2013-03-19 16:06:00,
2013-03-19 12:11:00,49.3,39.2,29.03,NW,324,0.0,4.0,68,0.00,,SKC,0.12,VWS V14.00,2013-03-19 16:11:00,
2013-03-19 12:16:00,49.5,39.3,29.03,SSW,204,0.0,4.0,68,0.00,,SKC,0.12,VWS V14.00,2013-03-19 16:16:00,
2013-03-19 12:22:00,50.0,39.1,29.03,NNE,19,2.7,4.0,66,0.00,,SKC,0.12,VWS V14.00,2013-03-19 16:22:00,
2013-03-19 12:27:00,50.2,39.3,29.03,North,7,0.0,4.0,66,0.00,,SKC,0.12,VWS V14.00,2013-03-19 16:27:00,
2013-03-19 12:32:00,50.4,39.5,29.03,NW,326,0.0,4.9,66,0.00,,SKC,0.12,VWS V14.00,2013-03-19 16:32:00,
2013-03-19 12:37:00,50.4,38.7,29.03,North,353,0.0,5.8,64,0.00,,SKC,0.12,VWS V14.00,2013-03-19 16:37:00,
2013-03-19 12:42:00,50.9,39.2,29.03,NW,315,0.0,0.0,64,0.00,,SKC,0.12,VWS V14.00,2013-03-19 16:42:00,
2013-03-19 12:47:00,51.4,40.1,29.03,SSW,206,3.8,4.0,65,0.00,,SKC,0.12,VWS V14.00,2013-03-19 16:47:00,
2013-03-19 12:57:00,52.0,40.2,29.03,NW,305,0.0,4.9,64,0.00,,SKC,0.12,VWS V14.00,2013-03-19 16:57:00,
2013-03-19 13:02:00,52.3,38.5,29.03,NW,318,3.8,4.0,59,0.00,,SKC,0.12,VWS V14.00,2013-03-19 17:02:00,
2013-03-19 13:07:00,52.7,40.1,29.03,WSW,239,3.8,5.4,62,0.00,,SKC,0.12,VWS V14.00,2013-03-19 17:07:00,
2013-03-19 13:12:00,53.1,40.4,29.03,SW,227,4.3,4.3,62,0.00,,SKC,0.12,VWS V14.00,2013-03-19 17:12:00,
2013-03-19 13:17:00,53.1,36.9,29.03,WNW,296,3.8,7.6,54,0.00,,SKC,0.12,VWS V14.00,2013-03-19 17:17:00,
2013-03-19 13:22:00,53.2,34.6,29.03,NNW,339,4.3,4.9,49,0.00,,SKC,0.12,VWS V14.00,2013-03-19 17:22:00,
2013-03-19 13:27:00,53.4,36.2,29.03,WSW,240,3.8,5.4,52,0.00,,SKC,0.12,VWS V14.00,2013-03-19 17:27:00,
2013-03-19 13:32:00,53.6,37.4,29.03,WNW,288,4.3,4.3,54,0.00,,SKC,0.12,VWS V14.00,2013-03-19 17:32:00,
2013-03-19 13:37:00,54.0,38.2,29.03,WNW,291,3.8,5.4,55,0.00,,SKC,0.12,VWS V14.00,2013-03-19 17:37:00,
2013-03-19 13:42:00,54.0,35.8,29.03,NNW,328,6.4,7.6,50,0.00,,SKC,0.12,VWS V14.00,2013-03-19 17:42:00,
2013-03-19 13:47:00,54.0,33.7,29.03,NW,326,3.2,7.6,46,0.00,,SKC,0.12,VWS V14.00,2013-03-19 17:47:00,
2013-03-19 13:52:00,54.3,35.6,29.03,NNW,344,7.5,7.5,49,0.00,,SKC,0.12,VWS V14.00,2013-03-19 17:52:00,
2013-03-19 13:57:00,54.3,35.1,29.03,NNW,329,4.8,8.3,48,0.00,,SKC,0.12,VWS V14.00,2013-03-19 17:57:00,
2013-03-19 14:02:00,54.3,36.1,29.03,NW,304,4.3,4.3,50,0.00,,SKC,0.12,VWS V14.00,2013-03-19 18:02:00,
2013-03-19 14:07:00,54.5,35.8,29.03,West,262,0.0,6.3,49,0.00,,SKC,0.12,VWS V14.00,2013-03-19 18:07:00,
2013-03-19 14:12:00,54.7,36.4,29.03,SW,223,0.0,5.4,50,0.00,,SKC,0.12,VWS V14.00,2013-03-19 18:12:00,
2013-03-19 14:17:00,55.2,37.4,29.00,WSW,256,0.0,5.4,51,0.00,,SKC,0.12,VWS V14.00,2013-03-19 18:17:00,
2013-03-19 14:22:00,55.8,37.4,29.00,NW,304,3.8,3.8,50,0.00,,SKC,0.12,VWS V14.00,2013-03-19 18:22:00,
2013-03-19 14:27:00,56.1,34.0,29.00,NW,324,4.3,6.3,43,0.00,,SKC,0.12,VWS V14.00,2013-03-19 18:27:00,
2013-03-19 14:32:00,56.3,36.3,29.03,NNW,327,4.8,5.8,47,0.00,,SKC,0.12,VWS V14.00,2013-03-19 18:32:00,
2013-03-19 14:37:00,56.5,36.5,29.03,North,349,6.4,6.4,47,0.00,,SKC,0.12,VWS V14.00,2013-03-19 18:37:00,
2013-03-19 14:42:00,56.5,37.0,29.03,NW,325,4.8,5.8,48,0.00,,SKC,0.12,VWS V14.00,2013-03-19 18:42:00,
2013-03-19 14:47:00,57.2,36.6,29.03,WSW,254,0.0,5.8,46,0.00,,SKC,0.12,VWS V14.00,2013-03-19 18:47:00,
2013-03-19 14:53:00,57.6,36.4,29.03,NNW,332,4.3,6.7,45,0.00,,SKC,0.12,VWS V14.00,2013-03-19 18:53:00,
2013-03-19 14:58:00,57.9,37.3,29.03,SW,223,2.7,6.7,46,0.00,,SKC,0.12,VWS V14.00,2013-03-19 18:58:00,
2013-03-19 15:03:00,57.9,37.8,29.03,WSW,237,0.0,5.4,47,0.00,,SKC,0.12,VWS V14.00,2013-03-19 19:03:00,
2013-03-19 15:08:00,58.1,37.5,29.03,WSW,254,0.0,5.4,46,0.00,,SKC,0.12,VWS V14.00,2013-03-19 19:08:00,
2013-03-19 15:13:00,58.5,37.8,29.03,NW,317,7.0,7.0,46,0.00,,SKC,0.12,VWS V14.00,2013-03-19 19:13:00,
2013-03-19 15:18:00,58.5,37.2,29.00,WNW,303,4.8,6.3,45,0.00,,SKC,0.12,VWS V14.00,2013-03-19 19:18:00,
2013-03-19 15:23:00,58.5,35.5,29.00,NW,313,3.8,5.4,42,0.00,,SKC,0.12,VWS V14.00,2013-03-19 19:23:00,
2013-03-19 15:28:00,58.6,35.0,29.00,SW,226,5.9,6.3,41,0.00,,SKC,0.12,VWS V14.00,2013-03-19 19:28:00,
2013-03-19 15:33:00,58.1,32.7,29.00,NNW,341,3.8,5.4,38,0.00,,SKC,0.12,VWS V14.00,2013-03-19 19:33:00,
2013-03-19 15:38:00,58.1,32.0,29.00,NW,318,5.9,8.7,37,0.00,,SKC,0.12,VWS V14.00,2013-03-19 19:38:00,
2013-03-19 15:43:00,58.3,32.2,29.00,SW,236,6.4,6.4,37,0.00,,SKC,0.12,VWS V14.00,2013-03-19 19:43:00,
2013-03-19 15:48:00,58.3,33.5,29.00,NW,322,0.0,6.3,39,0.00,,SKC,0.12,VWS V14.00,2013-03-19 19:48:00,
2013-03-19 15:53:00,58.5,32.3,29.00,NW,311,7.0,7.6,37,0.00,,SKC,0.12,VWS V14.00,2013-03-19 19:53:00,
2013-03-19 15:58:00,58.8,31.2,29.00,NW,321,3.2,7.6,35,0.00,,SKC,0.12,VWS V14.00,2013-03-19 19:58:00,
2013-03-19 16:03:00,58.6,31.8,29.00,NNW,333,4.3,4.3,36,0.00,,SKC,0.12,VWS V14.00,2013-03-19 20:03:00,
2013-03-19 16:08:00,58.6,31.1,29.00,NW,311,9.1,9.1,35,0.00,,SKC,0.12,VWS V14.00,2013-03-19 20:08:00,
2013-03-19 16:13:00,58.3,31.5,29.00,WNW,303,4.3,5.8,36,0.00,,SKC,0.12,VWS V14.00,2013-03-19 20:13:00,
2013-03-19 16:18:00,58.1,31.3,29.00,NW,319,6.4,6.4,36,0.00,,SKC,0.12,VWS V14.00,2013-03-19 20:18:00,
2013-03-19 16:23:00,57.9,29.7,29.00,NW,307,7.5,7.5,34,0.00,,SKC,0.12,VWS V14.00,2013-03-19 20:23:00,
2013-03-19 16:28:00,57.9,29.7,29.00,WNW,296,4.8,7.6,34,0.00,,SKC,0.12,VWS V14.00,2013-03-19 20:28:00,
2013-03-19 16:33:00,57.9,29.7,29.00,NE,41,3.8,8.1,34,0.00,,SKC,0.12,VWS V14.00,2013-03-19 20:33:00,
2013-03-19 16:38:00,57.6,30.1,29.00,SW,232,3.8,8.1,35,0.00,,SKC,0.12,VWS V14.00,2013-03-19 20:38:00,
2013-03-19 16:43:00,57.4,28.5,29.00,West,269,0.0,5.8,33,0.00,,SKC,0.12,VWS V14.00,2013-03-19 20:43:00,
2013-03-19 16:48:00,57.6,29.4,29.00,WSW,251,6.4,6.4,34,0.00,,SKC,0.12,VWS V14.00,2013-03-19 20:48:00,
2013-03-19 16:53:00,57.6,29.4,29.00,NW,311,3.8,4.9,34,0.00,,SKC,0.12,VWS V14.00,2013-03-19 20:53:00,
2013-03-19 16:58:00,57.6,30.1,29.00,NW,312,4.3,5.4,35,0.00,,SKC,0.12,VWS V14.00,2013-03-19 20:58:00,
2013-03-19 17:03:00,57.4,29.3,29.00,West,272,3.8,4.9,34,0.00,,SKC,0.12,VWS V14.00,2013-03-19 21:03:00,
2013-03-19 17:08:00,57.4,27.0,29.00,NW,306,4.8,6.7,31,0.00,,SKC,0.12,VWS V14.00,2013-03-19 21:08:00,
2013-03-19 17:13:00,57.2,26.9,29.00,West,270,0.0,7.6,31,0.00,,SKC,0.12,VWS V14.00,2013-03-19 21:13:00,
2013-03-19 17:18:00,56.8,25.8,29.03,SW,236,3.2,7.6,30,0.00,,SKC,0.12,VWS V14.00,2013-03-19 21:18:00,
2013-03-19 17:23:00,56.5,24.6,29.03,West,265,3.2,5.8,29,0.00,,SKC,0.12,VWS V14.00,2013-03-19 21:23:00,
2013-03-19 17:28:00,56.3,26.1,29.03,SSW,205,5.9,6.3,31,0.00,,SKC,0.12,VWS V14.00,2013-03-19 21:28:00,
2013-03-19 17:33:00,56.1,25.9,29.03,North,1,4.8,6.7,31,0.00,,SKC,0.12,VWS V14.00,2013-03-19 21:33:00,
2013-03-19 17:38:00,56.1,24.3,29.03,West,276,3.8,8.1,29,0.00,,SKC,0.12,VWS V14.00,2013-03-19 21:38:00,
2013-03-19 17:43:00,55.9,24.2,29.03,NW,307,0.0,7.6,29,0.00,,SKC,0.12,VWS V14.00,2013-03-19 21:43:00,
2013-03-19 17:48:00,55.9,24.2,29.03,SW,230,3.2,10.1,29,0.00,,SKC,0.12,VWS V14.00,2013-03-19 21:48:00,
2013-03-19 17:53:00,55.6,23.9,29.03,NW,306,4.8,10.1,29,0.00,,SKC,0.12,VWS V14.00,2013-03-19 21:53:00,
2013-03-19 17:58:00,55.4,22.9,29.03,WNW,289,0.0,10.1,28,0.00,,SKC,0.12,VWS V14.00,2013-03-19 21:58:00,
2013-03-19 18:03:00,55.0,22.5,29.03,NW,320,3.8,7.6,28,0.00,,SKC,0.12,VWS V14.00,2013-03-19 22:03:00,
2013-03-19 18:08:00,54.9,22.4,29.03,WSW,253,4.3,7.6,28,0.00,,SKC,0.12,VWS V14.00,2013-03-19 22:08:00,
2013-03-19 18:13:00,54.3,21.9,29.03,NW,309,4.3,5.4,28,0.00,,SKC,0.12,VWS V14.00,2013-03-19 22:13:00,
2013-03-19 18:18:00,54.1,20.9,29.03,WSW,250,3.2,7.6,27,0.00,,SKC,0.12,VWS V14.00,2013-03-19 22:18:00,
2013-03-19 18:24:00,53.6,21.3,29.03,West,263,3.8,8.3,28,0.00,,SKC,0.12,VWS V14.00,2013-03-19 22:24:00,
2013-03-19 18:29:00,53.1,20.8,29.03,WNW,297,3.2,8.3,28,0.00,,SKC,0.12,VWS V14.00,2013-03-19 22:29:00,
2013-03-19 18:34:00,52.9,20.7,29.03,WNW,301,7.5,8.1,28,0.00,,SKC,0.12,VWS V14.00,2013-03-19 22:34:00,
2013-03-19 18:39:00,52.7,20.5,29.03,West,263,7.5,8.3,28,0.00,,SKC,0.12,VWS V14.00,2013-03-19 22:39:00,
2013-03-19 18:44:00,52.5,19.5,29.03,WNW,303,6.4,6.4,27,0.00,,SKC,0.12,VWS V14.00,2013-03-19 22:44:00,
2013-03-19 18:49:00,52.3,19.4,29.06,SW,234,3.8,5.8,27,0.00,,SKC,0.12,VWS V14.00,2013-03-19 22:49:00,
2013-03-19 18:54:00,52.0,19.1,29.06,West,273,4.3,6.3,27,0.00,,SKC,0.12,VWS V14.00,2013-03-19 22:54:00,
2013-03-19 18:59:00,52.0,19.1,29.06,WNW,287,3.8,6.3,27,0.00,,SKC,0.12,VWS V14.00,2013-03-19 22:59:00,
2013-03-19 19:04:00,51.8,18.9,29.03,SW,217,0.0,4.0,27,0.00,,SKC,0.12,VWS V14.00,2013-03-19 23:04:00,
2013-03-19 19:09:00,51.6,18.8,29.03,WNW,289,3.2,4.9,27,0.00,,SKC,0.12,VWS V14.00,2013-03-19 23:09:00,
2013-03-19 19:14:00,51.3,19.3,29.03,NW,311,0.0,4.0,28,0.00,,SKC,0.12,VWS V14.00,2013-03-19 23:14:00,
2013-03-19 19:19:00,50.9,19.0,29.06,NW,309,0.0,4.9,28,0.00,,SKC,0.12,VWS V14.00,2013-03-19 23:19:00,
2013-03-19 19:24:00,50.5,18.7,29.06,NNW,328,0.0,5.8,28,0.00,,SKC,0.12,VWS V14.00,2013-03-19 23:24:00,
2013-03-19 19:29:00,50.5,17.8,29.06,West,266,2.7,6.3,27,0.00,,SKC,0.12,VWS V14.00,2013-03-19 23:29:00,
2013-03-19 19:34:00,50.2,18.4,29.06,NW,308,5.4,5.4,28,0.00,,SKC,0.12,VWS V14.00,2013-03-19 23:34:00,
2013-03-19 19:39:00,50.0,17.4,29.06,NW,322,0.0,4.5,27,0.00,,SKC,0.12,VWS V14.00,2013-03-19 23:39:00,
2013-03-19 19:44:00,49.6,17.9,29.06,West,278,0.0,3.6,28,0.00,,SKC,0.12,VWS V14.00,2013-03-19 23:44:00,
2013-03-19 19:49:00,49.5,17.7,29.06,NNW,345,3.8,4.0,28,0.00,,SKC,0.12,VWS V14.00,2013-03-19 23:49:00,
2013-03-19 19:54:00,49.3,17.6,29.06,West,273,3.8,4.0,28,0.00,,SKC,0.12,VWS V14.00,2013-03-19 23:54:00,
2013-03-19 19:59:00,48.9,17.3,29.06,NW,317,0.0,4.0,28,0.00,,SKC,0.12,VWS V14.00,2013-03-19 23:59:00,
2013-03-19 20:04:00,48.7,17.1,29.06,WNW,285,3.8,5.4,28,0.00,,SKC,0.12,VWS V14.00,2013-03-20 00:04:00,
2013-03-19 20:09:00,48.6,17.0,29.06,NW,326,0.0,5.4,28,0.00,,SKC,0.12,VWS V14.00,2013-03-20 00:09:00,
2013-03-19 20:14:00,48.2,16.6,29.06,NW,326,0.0,0.0,28,0.00,,SKC,0.12,VWS V14.00,2013-03-20 00:14:00,
2013-03-19 20:19:00,48.2,16.6,29.06,WNW,297,3.2,5.8,28,0.00,,SKC,0.12,VWS V14.00,2013-03-20 00:19:00,
2013-03-19 20:24:00,48.2,16.6,29.06,West,260,0.0,5.8,28,0.00,,SKC,0.12,VWS V14.00,2013-03-20 00:24:00,
2013-03-19 20:29:00,48.2,16.6,29.06,NW,316,0.0,5.8,28,0.00,,SKC,0.12,VWS V14.00,2013-03-20 00:29:00,
2013-03-19 20:34:00,47.8,16.3,29.06,NW,310,0.0,3.6,28,0.00,,SKC,0.12,VWS V14.00,2013-03-20 00:34:00,
2013-03-19 20:39:00,47.7,16.2,29.06,NW,322,0.0,3.6,28,0.00,,SKC,0.12,VWS V14.00,2013-03-20 00:39:00,
2013-03-19 20:44:00,47.5,16.0,29.06,NW,322,0.0,0.0,28,0.00,,SKC,0.12,VWS V14.00,2013-03-20 00:44:00,
2013-03-19 20:49:00,47.3,15.9,29.06,West,261,3.8,3.8,28,0.00,,SKC,0.12,VWS V14.00,2013-03-20 00:49:00,
2013-03-19 20:54:00,47.1,16.5,29.06,SW,224,0.0,0.0,29,0.00,,SKC,0.12,VWS V14.00,2013-03-20 00:54:00,
2013-03-19 20:59:00,46.8,15.4,29.06,West,262,0.0,0.0,28,0.00,,SKC,0.12,VWS V14.00,2013-03-20 00:59:00,
2013-03-19 21:04:00,46.8,16.2,29.06,West,262,0.0,0.0,29,0.00,,SKC,0.12,VWS V14.00,2013-03-20 01:04:00,
2013-03-19 21:09:00,46.4,15.9,29.06,NNW,333,4.3,4.3,29,0.00,,SKC,0.12,VWS V14.00,2013-03-20 01:09:00,
2013-03-19 21:14:00,46.2,15.7,29.06,NNW,333,0.0,0.0,29,0.00,,SKC,0.12,VWS V14.00,2013-03-20 01:14:00,
2013-03-19 21:19:00,46.0,15.6,29.06,WNW,299,0.0,0.0,29,0.00,,SKC,0.12,VWS V14.00,2013-03-20 01:19:00,
2013-03-19 21:24:00,45.9,15.4,29.06,WNW,299,0.0,0.0,29,0.00,,SKC,0.12,VWS V14.00,2013-03-20 01:24:00,
2013-03-19 21:29:00,45.7,15.3,29.06,WNW,299,0.0,0.0,29,0.00,,SKC,0.12,VWS V14.00,2013-03-20 01:29:00,
2013-03-19 21:34:00,45.5,15.1,29.06,WNW,299,0.0,0.0,29,0.00,,SKC,0.12,VWS V14.00,2013-03-20 01:34:00,
2013-03-19 21:39:00,45.3,15.7,29.06,WNW,299,0.0,0.0,30,0.00,,SKC,0.12,VWS V14.00,2013-03-20 01:39:00,
2013-03-19 21:44:00,45.3,14.9,29.06,WNW,300,0.0,0.0,29,0.00,,SKC,0.12,VWS V14.00,2013-03-20 01:44:00,
2013-03-19 21:49:00,45.3,15.7,29.06,WNW,300,0.0,0.0,30,0.00,,SKC,0.12,VWS V14.00,2013-03-20 01:49:00,
2013-03-19 21:54:00,45.0,15.4,29.06,WNW,300,0.0,0.0,30,0.00,,SKC,0.12,VWS V14.00,2013-03-20 01:54:00,
2013-03-19 21:59:00,44.8,15.3,29.06,WNW,300,0.0,0.0,30,0.00,,SKC,0.12,VWS V14.00,2013-03-20 01:59:00,
2013-03-19 22:04:00,44.6,15.1,29.06,WNW,300,0.0,0.0,30,0.00,,SKC,0.12,VWS V14.00,2013-03-20 02:04:00,
2013-03-19 22:09:00,44.4,15.7,29.06,WNW,300,0.0,0.0,31,0.00,,SKC,0.12,VWS V14.00,2013-03-20 02:09:00,
2013-03-19 22:14:00,44.4,15.7,29.06,WNW,300,0.0,0.0,31,0.00,,SKC,0.12,VWS V14.00,2013-03-20 02:14:00,
2013-03-19 22:19:00,44.2,15.5,29.06,WNW,300,0.0,0.0,31,0.00,,SKC,0.12,VWS V14.00,2013-03-20 02:19:00,
2013-03-19 22:24:00,44.1,15.4,29.06,WNW,300,0.0,0.0,31,0.00,,SKC,0.12,VWS V14.00,2013-03-20 02:24:00,
2013-03-19 22:29:00,44.1,16.1,29.06,WNW,300,0.0,0.0,32,0.00,,SKC,0.12,VWS V14.00,2013-03-20 02:29:00,
2013-03-19 22:34:00,44.1,16.1,29.06,WNW,300,0.0,0.0,32,0.00,,SKC,0.12,VWS V14.00,2013-03-20 02:34:00,
2013-03-19 22:39:00,44.1,16.8,29.06,WNW,300,0.0,0.0,33,0.00,,SKC,0.12,VWS V14.00,2013-03-20 02:39:00,
2013-03-19 22:44:00,44.1,16.8,29.06,WNW,300,0.0,0.0,33,0.00,,SKC,0.12,VWS V14.00,2013-03-20 02:44:00,
2013-03-19 22:49:00,44.1,16.8,29.06,WNW,300,0.0,0.0,33,0.00,,SKC,0.12,VWS V14.00,2013-03-20 02:49:00,
2013-03-19 22:54:00,44.1,16.8,29.06,WNW,300,0.0,0.0,33,0.00,,SKC,0.12,VWS V14.00,2013-03-20 02:54:00,
2013-03-19 22:59:00,44.2,17.0,29.06,WNW,300,0.0,0.0,33,0.00,,SKC,0.12,VWS V14.00,2013-03-20 02:59:00,
2013-03-19 23:04:00,44.1,16.8,29.09,WNW,300,0.0,0.0,33,0.00,,SKC,0.12,VWS V14.00,2013-03-20 03:04:00,
2013-03-19 23:09:00,44.1,17.5,29.09,WNW,300,0.0,0.0,34,0.00,,SKC,0.12,VWS V14.00,2013-03-20 03:09:00,
2013-03-19 23:14:00,44.1,18.2,29.09,WNW,300,0.0,0.0,35,0.00,,SKC,0.12,VWS V14.00,2013-03-20 03:14:00,
2013-03-19 23:19:00,44.1,18.2,29.09,WNW,300,0.0,0.0,35,0.00,,SKC,0.12,VWS V14.00,2013-03-20 03:19:00,
2013-03-19 23:24:00,44.1,18.8,29.09,WNW,300,0.0,0.0,36,0.00,,SKC,0.12,VWS V14.00,2013-03-20 03:24:00,
2013-03-19 23:29:00,44.1,19.5,29.09,WNW,300,0.0,0.0,37,0.00,,SKC,0.12,VWS V14.00,2013-03-20 03:29:00,
2013-03-19 23:35:00,44.1,20.1,29.09,WNW,300,0.0,0.0,38,0.00,,SKC,0.12,VWS V14.00,2013-03-20 03:35:00,
2013-03-19 23:40:00,43.9,19.9,29.09,WNW,300,0.0,0.0,38,0.00,,SKC,0.12,VWS V14.00,2013-03-20 03:40:00,
2013-03-19 23:45:00,43.9,19.9,29.09,WNW,300,0.0,0.0,38,0.00,,SKC,0.12,VWS V14.00,2013-03-20 03:45:00,
2013-03-19 23:50:00,43.7,19.8,29.09,WNW,300,0.0,0.0,38,0.00,,SKC,0.12,VWS V14.00,2013-03-20 03:50:00,
2013-03-19 23:55:00,43.7,19.8,29.09,WNW,300,0.0,0.0,38,0.00,,SKC,0.12,VWS V14.00,2013-03-20 03:55:00,